Regional Weather Roundup
Issued by NWS Green Bay, WI

Home | Current Version | Previous Version | Graphics & Text | Print | Product List | Glossary Off
Versions: 1 2 3 4 5 6 7 8 9 10 11 12 13 14 15 16 17 18 19 20 21 22 23 24 25 26 27 28 29 30 31 32 33 34 35 36 37 38 39 40 41 42 43 44 45 46 47 48 49 50

000
ASUS43 KGRB 281110
RWRGRB

NORTH-CENTRAL AND NORTHEAST WISCONSIN REGIONAL WEATHER ROUNDUP
NATIONAL WEATHER SERVICE GREEN BAY WI
500 AM CST FRI NOV 28 2014

WIZ005-009-010>012-018-019-281200-
NORTH CENTRAL WISCONSIN

CITY           SKY/WX    TMP DP  RH WIND       PRES   REMARKS
IRONWOOD       CLOUDY     7   1  78 S3        30.13S
MANITOWISH WTR CLOUDY     3   0  87 S6        30.12F WCI  -8
ARBOR VITAE    CLOUDY     5   2  85 S5        30.12F WCI  -4
EAGLE RIVER    MOCLDY     4  -1  80 CALM      30.12F
LAND O LAKES   CLOUDY     2  -2  85 CALM      30.13F
RHINELANDER    CLOUDY     3  -1  83 E3        30.15F
PHILLIPS       CLOUDY     6   0  78 S5        30.15S WCI  -3
ANTIGO         MOCLDY     6   3  88 SE3       30.16F
TOMAHAWK       CLOUDY     4   1  84 CALM      30.16S
MERRILL        MOCLDY     6   2  86 S3        30.17S
$$

WIZ013-073-281200-
NORTHEAST WISCONSIN

CITY           SKY/WX    TMP DP  RH WIND       PRES   REMARKS
IRON MOUNTAIN  CLOUDY     1  -4  79 CALM      30.19F
MARINETTE      CLOUDY     7   3  85 CALM      30.26F
OCONTO         CLOUDY     8   6  93 CALM      30.28F
$$

WIZ017-030-035>037-045-281200-
CENTRAL WISCONSIN

CITY           SKY/WX    TMP DP  RH WIND       PRES   REMARKS
MEDFORD        LGT SNOW   6   3  84 SE5       30.14F WCI  -2
WAUSAU         FLURRIES   7   2  80 S9        30.18F WCI  -7
MOSINEE        NOT AVBL
MARSHFIELD     FLURRIES   9   4  80 SE6       30.17F WCI  -1
WISC RAPIDS    LGT SNOW   8   3  80 SE6       30.22F WCI  -2
STEVENS POINT  FLURRIES   5   2  88 CALM      30.22F
WAUPACA        LGT SNOW   9   4  79 CALM      30.26F
SHAWANO        MOCLDY     9   5  84 CALM      30.25F
CLINTONVILLE   PTCLDY     7   3  85 S3        30.25F
$$

WIZ038-039-048-051-281200-
FOX VALLEY

CITY           SKY/WX    TMP DP  RH WIND       PRES   REMARKS
NWS GREEN BAY  CLOUDY     9   5  84 S3        30.27F
APPLETON       NOT AVBL
OSHKOSH        CLOUDY    11   5  77 MISG      30.26F
FOND DU LAC    CLOUDY    12   6  77 S7        30.27F WCI   1
$$

WIZ022-050-052-281200-
EAST CENTRAL WISCONSIN

CITY           SKY/WX    TMP DP  RH WIND       PRES   REMARKS
STURGEON BAY   CLOUDY    10   7  85 S3        30.25F
MANITOWOC      CLOUDY    11   7  84 SW6       30.29F WCI   1
SHEBOYGAN      CLOUDY    11   5  77 SW5       30.29F WCI   3
$$

LMZ563-521-522-541>543-281200-
LAKESHORE

STATION/POSITION TIME  TEMP    WIND        PRES    VSBY  WAVE
                       AIR SEA DIR/SP/G                  HT/PER
                 (UTC) (F)     (DEG/KT/KT) (MB)    (MI)  (FT/S)
SHEBOYGAN LKSHOR 1100   13 34  230/  6/  8 1027.4F
KEWAUNEE LKSHORE 1100   10     290/  4/  6 1024.7F
NORTHPORT PIER   1100   14     180/  2/  4 1025.1F
N MID LAKE BUOY  1100   19 42  260/ 10/ 12 1026.2F         1/ 3
SISTER BAY LKSHO 1000             CALM       N/A
CHAMBERS ISLAND  1100   14     170/  2/  7 1024.7F
MENOMINEE LKSHOR 1100   11     230/  2/  3 1025.5F
$$



USA.gov is the U.S. government's official web portal to all federal, state and local government web resources and services.